Location: Sulphur Springs (historical)
(38.1246°N, 122.1900°W)
Time: 09:57:15
(UTC+00:00)

SJ-12 - Pass Details

Date: 29 October 2020
Orbit: 568 x 585 km, 97.7° (Epoch: 23 November)

Event Time Altitude Azimuth Distance (km) Brightness Sun altitude
Rises 13:30:17 0° 6° (N) 2,803 7.4 -12.7°
Reaches altitude 10° 13:32:29 10° 2° (N) 1,897 6.5 -12.3°
Maximum altitude 13:36:29 54° 286° (WNW) 704 4.0 -11.5°
Drops below altitude 10° 13:40:27 10° 209° (SSW) 1,873 6.3 -10.7°
Sets 13:42:36 0° 204° (SSW) 2,763 7.2 -10.3°
